Regional Weather Roundup
Issued by NWS

Home | Current Version | Previous Version | Graphics & Text | Print | Product List | Glossary On
Versions: 1 2 3 4 5 6 7 8 9 10 11 12 13 14 15 16 17 18 19 20 21 22 23 24 25 26 27 28 29 30 31 32 33 34 35 36 37 38 39 40 41 42 43 44 45 46 47 48 49 50
000
ASUS45 KTFX 020510
RWRMT
MONTANA REGIONAL WEATHER ROUNDUP
NATIONAL WEATHER SERVICE GREAT FALLS MT
1100 PM MDT WED JUL 01 2015

NOTE: "FAIR" INDICATES FEW OR NO CLOUDS BELOW 12000 FEET WITH NO
SIGNIFICANT WEATHER AND/OR OBSTRUCTIONS TO VISIBILITY.

MTZ001>007-043-020600-
WEST OF THE DIVIDE

CITY           SKY/WX    TMP DP  RH WIND       PRES   REMARKS
KALISPELL      CLEAR     77  53  43 N17       30.03R
MISSOULA       PTCLDY    75  44  33 N6        30.04R
BUTTE          CLEAR     71  49  45 N10       30.20R
MULLAN PASS    CLEAR     69  37  30 VRB3      30.25R
DEER LODGE       N/A     72  52  49 NW7G18    30.22R
EUREKA           N/A     73  54  49 CALM      30.04R
HAMILTON         N/A     77  41  27 E8        30.06R
PLAINS           N/A     73  48  41 MISG      30.02R
RONAN            N/A     70  57  63 N5        30.07R
THOMPSON FALLS   N/A     73  43  34 CALM      30.05R
$$

MTZ008-052>055-020600-
SOUTHWEST MONTANA

CITY           SKY/WX    TMP DP  RH WIND       PRES   REMARKS
BOZEMAN        CLEAR     72  52  49 VRB5      30.12R
DILLON         CLEAR     71  42  35 NE14      30.14R
W YELLOWSTONE  CLEAR     59  45  58 CALM      30.24R
THREE FORKS      N/A     76  54  46 NW8       30.10R
$$

MTZ009-010-012-014-046-048-049-054-020600-
EAST SLOPES AND CENTRAL MONTANA

CITY           SKY/WX    TMP DP  RH WIND       PRES   REMARKS
CUT BANK       CLEAR     62  51  67 N9        30.21R
GREAT FALLS    CLOUDY    70  51  51 NE10      30.17R
MALMSTROM AFB  CLOUDY    70  51  50 N12       30.17R
HELENA         CLEAR     73  52  47 NW9       30.14R
CONRAD           N/A     62  59  90 CALM      30.21R
$$

MTZ011-013-016-021-045-047-050-051-020600-
NORTH CENTRAL MONTANA

CITY           SKY/WX    TMP DP  RH WIND       PRES   REMARKS
HAVRE          CLEAR     63  53  70 NW6       30.10R
LEWISTOWN      MOCLDY    69  53  56 N5        30.18R
CHINOOK          N/A     64  57  77 CALM      30.09R
FORT BENTON      N/A     70  54  56 CALM      30.15R
$$

MTZ017>020-022>027-061-062-020600-
NORTHEAST MONTANA

CITY           SKY/WX    TMP DP  RH WIND       PRES   REMARKS
GLASGOW        PTCLDY    63  51  65 W5        30.05R
JORDAN           N/A     66  55  67 N6        30.07R
SIDNEY         MOCLDY    63  57  82 CALM      30.00F
WOLF POINT     MOCLDY    61  57  87 W7        30.01F
MALTA            N/A     64  54  70 CALM      30.04R
PLENTYWOOD       N/A     61  55  82 W7        30.00S
SCOBEY           N/A     56  51  83 S2        30.01F
$$

MTZ028>42-056>058-020600-
SOUTHCENTRAL AND SOUTHEAST MONTANA

CITY           SKY/WX    TMP DP  RH WIND       PRES   REMARKS
BAKER          PTCLDY    64  61  90 NE9       30.06R
BILLINGS       PTCLDY    71  55  56 N3        30.14R
LIVINGSTON     CLEAR     68  54  60 E17       30.16R
MILES CITY     PTCLDY    65  58  78 N7        30.03S
EKALAKA          N/A     64  58  81 SE5       30.05S
FORSYTH          N/A     64  63  94 CALM      30.05R
LAUREL           N/A     66  51  58 CALM      30.12R
ROUNDUP          N/A     69  57  65 CALM      30.03R
$$

REGIONAL REPORTS...DAKOTAS

CITY           SKY/WX    TMP DP  RH WIND       PRES   REMARKS
WILLISTON      LGT RAIN  66  61  84 NE5       30.02R
MINOT          CLOUDY    67  64  90 CALM      29.96S FOG
DICKINSON      CLOUDY    64  61  90 W5        29.99F
BEACH          LGT RAIN  55  55 100 NW3       30.05R
CROSBY         FAIR      64  64 100 SW3       29.98F FOG
BISMARCK       CLOUDY    67  65  93 E3        29.96F
GRAND FORKS    PTCLDY    65  61  87 S7        29.94F
FARGO          CLEAR     65  56  72 S9        29.97F
BUFFALO SD       N/A     66  64  93 W7        29.97R
RAPID CITY     RAIN      68  65  90 N9        30.05R
$$

REGIONAL REPORTS...WYOMING/IDAHO/WASHINGTON

CITY           SKY/WX    TMP DP  RH WIND       PRES   REMARKS
GILLETTE       MOCLDY    60  56  86 NW6       30.15R
SHERIDAN       CLOUDY    67  57  70 W6        30.16R
BUFFALO WY     CLOUDY    65  56  72 NW9       30.22R
CODY           CLEAR     70  48  46 N8        30.19R
YELLOWSTONE LA   N/A     57  42  57 NW5       30.35R
IDAHO FALLS    CLEAR     72  57  59 SE3       30.03R
SALMON         CLEAR     73  45  35 N5        30.04R
BOISE          PTCLDY    88  37  16 N5        29.92R
SPOKANE        PTCLDY    84  39  20 CALM      29.98R
$$

REGIONAL REPORTS...ALBERTA

CITY           SKY/WX    TMP DP  RH WIND       PRES   REMARKS
EDMONTON       CLEAR     64  55  72 W5        30.08R
CALGARY        MOCLDY    70  54  56 W2        30.19R
LETHBRIDGE     CLEAR     64  55  72 VRB2      30.17R
MEDICINE HAT   CLEAR     66  55  68 NW6       30.11R
CARDSTON         N/A     61  57  88 SW7         N/A
MILK RIVER       N/A     59  54  82 NW3         N/A
ONEFOUR          N/A     61  54  77 NW12        N/A
$$

REGIONAL REPORTS...SASKATCHEWAN

CITY           SKY/WX    TMP DP  RH WIND       PRES   REMARKS
SWIFT CURRENT  PTCLDY    61  57  88 W9        30.04R
REGINA         CLOUDY    66  63  88 NE5       29.98S
SASKATOON      MOCLDY    64  59  82 NW6       30.00R
CYPRESS HILLS    N/A     59  54  82 N6          N/A
VAL MARIE        N/A     57  55  94 W2          N/A
ROCKGLEN         N/A     57  54  88 W7          N/A
$$



USA.gov is the U.S. government's official web portal to all federal, state and local government web resources and services.